Pitt Meadows, British Columbia

4:18 PM PDT on June 24, 2017 (GMT -0700)
Pitt Meadows

Weather History for CWMM - November, 2012

Change the Weather History Date:

Sunday, November 18, 2012

  Actual Average Record
Temperature  
Mean Temperature 46 °F -  
Max Temperature 50 °F - - ()
Min Temperature 42 °F - - ()
Degree Days  
Heating Degree Days 20    
Moisture  
Dew Point 42 °F    
Average Humidity 86    
Maximum Humidity 94    
Minimum Humidity 66    
Precipitation  
Precipitation 0.16 in - - ()
Sea Level Pressure  
Sea Level Pressure 29.64 in    
Wind  
Wind Speed 7 mph ()    
Max Wind Speed 12 mph    
Max Gust Speed 20 mph    
T = Trace of Precipitation, MM = Missing Value Source: Averaged Metar Reports

Daily Weather History Graph

Daily Weather History Graph

Search for Another Location

Airport or City:

Trip Planner

Search our weather history database for the weather conditions in past years. The results will help you decide how hot, cold, wet, or windy it might be!

Date:

Astronomy

Nov. 18, 2012 Rise Set
Actual Time 7:26 AM PST 4:25 PM PST
Civil Twilight 6:51 AM PST 5:00 PM PST
Nautical Twilight 6:12 AM PST 5:39 PM PST
Astronomical Twilight 5:34 AM PST 6:16 PM PST
Moon 11:50 AM PST (11/18) 9:59 PM PST (11/18)
Length of Visible Light 10h 09m
Length of Day
8h 58m
Waxing Crescent, 31% of the Moon is Illuminated
Nov 18
Waxing Crescent
Nov 20
First Quarter
Nov 28
Full
Dec 6
Last Quarter
Dec 13
New

Hourly Weather History & Observations

Time (PST) Temp. Windchill Dew Point Humidity Pressure Visibility Wind Dir Wind Speed Gust Speed Precip Events Conditions
12:00 AM 44.8 °F 41.6 °F 41.7 °F 89% 29.67 in - SSE 5.8 mph - N/A   Unknown
1:00 AM 44.4 °F 40.5 °F 39.9 °F 84% 29.68 in - SSE 6.9 mph - N/A   Unknown
2:00 AM 44.2 °F 40.3 °F 40.8 °F 88% 29.68 in - SE 6.9 mph - 0.01 in   Unknown
3:00 AM 44.2 °F 39.7 °F 41.2 °F 89% 29.70 in - SSE 8.1 mph - N/A   Unknown
4:00 AM 45 °F - 41 °F 82% 29.70 in - SSE 8.1 mph - -  
4:00 AM 45.0 °F 40.6 °F 41.4 °F 87% 29.70 in - SSE 8.1 mph 17.3 mph N/A   Unknown
5:00 AM 45.3 °F 40.6 °F 41.4 °F 86% 29.70 in - SSE 9.2 mph 17.3 mph N/A   Unknown
6:00 AM 45.9 °F 41.2 °F 41.7 °F 85% 29.70 in - SSE 9.2 mph - N/A   Unknown
7:00 AM 45.7 °F 40.6 °F 41.5 °F 85% 29.71 in - SE 10.4 mph 19.6 mph N/A   Unknown
8:00 AM 45.9 °F 42.3 °F 41.2 °F 84% 29.71 in - SSE 6.9 mph - N/A   Unknown
9:00 AM 46.6 °F - 39.2 °F 75% 29.71 in - SE 6.9 mph - N/A   Unknown
10:00 AM 47 °F - 39 °F 66% 29.71 in - SE 8.1 mph - -  
10:00 AM 46.8 °F - 39.2 °F 75% 29.71 in - SE 8.1 mph 18.4 mph N/A   Unknown
11:00 AM 45.1 °F 41.4 °F 42.1 °F 89% 29.72 in - SE 6.9 mph - 0.04 in   Unknown
12:00 PM 47.3 °F - 42.6 °F 84% 29.70 in - SE 11.5 mph - N/A   Unknown
1:00 PM 47.8 °F - 43.0 °F 83% 29.70 in - SE 11.5 mph 18.4 mph N/A   Unknown
2:00 PM 45.7 °F 42.0 °F 42.8 °F 90% 29.68 in - NNE 6.9 mph - N/A   Unknown
3:00 PM 45.0 °F 40.6 °F 43.0 °F 93% 29.64 in - NNE 8.1 mph - 0.01 in   Unknown
4:00 PM 45 °F - 42 °F 87% 29.61 in - ENE 5.8 mph - -  
4:00 PM 44.6 °F 41.4 °F 42.4 °F 92% 29.61 in - ENE 5.8 mph - N/A   Unknown
5:00 PM 44.1 °F 40.8 °F 42.3 °F 93% 29.57 in - NE 5.8 mph - 0.02 in   Unknown
6:00 PM 43.7 °F 40.3 °F 41.9 °F 93% 29.51 in - East 5.8 mph - 0.04 in   Unknown
7:00 PM 43.7 °F - 42.1 °F 94% 29.47 in - East 2.3 mph - 0.04 in   Unknown
8:00 PM 44.2 °F 40.3 °F 42.4 °F 93% 29.48 in - East 6.9 mph - 0.07 in   Unknown
9:00 PM 44.6 °F 40.7 °F 42.3 °F 91% 29.52 in - ENE 6.9 mph - N/A   Unknown
10:00 PM 49 °F - 45 °F 81% 29.52 in - SE 8.1 mph - -  
10:00 PM 49.5 °F - 45.0 °F 84% 29.52 in - SE 8.1 mph 19.6 mph N/A   Unknown
11:00 PM 50.4 °F - 45.3 °F 83% 29.52 in - SSE 10.4 mph 19.6 mph N/A   Unknown